Time,TemperatureF,DewpointF,PressureIn,WindDirection,WindDirectionDegrees,WindSpeedMPH,WindSpeedGustMPH,Humidity,HourlyPrecipIn,Conditions,Clouds,dailyrainin,SoftwareType,DateUTC
2013-04-23 00:04:00,55.9,0.0,30.01,SE,136,0.0,0.0,0,0.00,,---,0.00,VWS V14.00,2013-04-23 05:04:00,
2013-04-23 00:09:00,56.0,0.0,30.01,SE,145,7.0,10.0,0,0.00,,---,0.00,VWS V14.00,2013-04-23 05:09:00,
2013-04-23 00:14:00,56.0,0.0,30.01,SE,134,7.0,13.0,0,0.00,,---,0.00,VWS V14.00,2013-04-23 05:14:00,
2013-04-23 00:19:00,56.0,0.0,30.01,SE,142,6.0,13.0,0,0.00,,---,0.00,VWS V14.00,2013-04-23 05:19:00,
2013-04-23 00:24:00,56.0,0.0,30.01,SE,141,4.0,13.0,0,0.00,,---,0.00,VWS V14.00,2013-04-23 05:24:00,
2013-04-23 00:29:00,56.0,0.0,30.01,SE,132,2.0,13.0,0,0.00,,---,0.00,VWS V14.00,2013-04-23 05:29:00,
2013-04-23 00:34:00,56.0,0.0,30.00,SE,138,5.0,6.0,0,0.00,,---,0.00,VWS V14.00,2013-04-23 05:34:00,
2013-04-23 00:40:00,55.9,0.0,30.00,SE,131,9.0,9.0,0,0.00,,---,0.00,VWS V14.00,2013-04-23 05:40:00,
2013-04-23 00:45:00,55.9,0.0,30.00,SE,135,3.0,9.0,0,0.00,,---,0.00,VWS V14.00,2013-04-23 05:45:00,
2013-04-23 00:50:00,55.7,0.0,30.00,SE,135,0.0,9.0,0,0.00,,---,0.00,VWS V14.00,2013-04-23 05:50:00,
2013-04-23 00:55:00,55.7,0.0,30.00,SE,135,0.0,9.0,0,0.00,,---,0.00,VWS V14.00,2013-04-23 05:55:00,
2013-04-23 01:00:00,55.7,0.0,30.00,South,182,0.0,9.0,0,0.00,,---,0.00,VWS V14.00,2013-04-23 06:00:00,
2013-04-23 01:05:00,55.4,0.0,30.01,South,182,0.0,0.0,0,0.00,,---,0.00,VWS V14.00,2013-04-23 06:05:00,
2013-04-23 01:10:00,55.1,0.0,30.01,WSW,257,0.0,1.0,0,0.00,,---,0.00,VWS V14.00,2013-04-23 06:10:00,
2013-04-23 01:15:00,54.4,0.0,30.03,West,261,5.0,14.0,0,0.00,,---,0.00,VWS V14.00,2013-04-23 06:15:00,
2013-04-23 01:20:00,53.2,0.0,30.03,SW,223,2.0,14.0,0,0.02,,---,0.02,VWS V14.00,2013-04-23 06:20:00,
2013-04-23 01:25:00,52.2,0.0,30.03,SSW,202,9.0,14.0,0,0.02,,---,0.02,VWS V14.00,2013-04-23 06:25:00,
2013-04-23 01:30:00,51.7,0.0,30.03,SSW,205,0.0,14.0,0,0.02,,---,0.02,VWS V14.00,2013-04-23 06:30:00,
2013-04-23 01:35:00,51.3,0.0,30.02,SSW,199,0.0,0.0,0,0.02,,---,0.02,VWS V14.00,2013-04-23 06:35:00,
2013-04-23 01:41:00,51.0,0.0,30.01,SSW,194,0.0,0.0,0,0.03,,---,0.03,VWS V14.00,2013-04-23 06:41:00,
2013-04-23 01:46:00,50.8,0.0,30.01,SSW,194,0.0,0.0,0,0.03,,---,0.03,VWS V14.00,2013-04-23 06:46:00,
2013-04-23 01:51:00,50.8,0.0,30.00,SSW,194,0.0,0.0,0,0.03,,---,0.03,VWS V14.00,2013-04-23 06:51:00,
2013-04-23 01:56:00,50.7,0.0,30.00,South,188,0.0,0.0,0,0.03,,---,0.03,VWS V14.00,2013-04-23 06:56:00,
2013-04-23 02:01:00,50.4,0.0,29.99,South,184,0.0,0.0,0,0.03,,---,0.03,VWS V14.00,2013-04-23 07:01:00,
2013-04-23 02:06:00,50.2,0.0,29.99,South,184,0.0,0.0,0,0.03,,---,0.03,VWS V14.00,2013-04-23 07:06:00,
2013-04-23 02:11:00,50.2,0.0,29.99,South,184,0.0,0.0,0,0.03,,---,0.03,VWS V14.00,2013-04-23 07:11:00,
2013-04-23 02:16:00,50.1,0.0,29.98,South,184,0.0,0.0,0,0.03,,---,0.03,VWS V14.00,2013-04-23 07:16:00,
2013-04-23 02:22:00,50.1,0.0,29.98,South,184,0.0,0.0,0,0.03,,---,0.03,VWS V14.00,2013-04-23 07:22:00,
2013-04-23 02:27:00,50.1,0.0,29.98,South,184,0.0,0.0,0,0.03,,---,0.03,VWS V14.00,2013-04-23 07:27:00,
2013-04-23 02:32:00,50.1,0.0,29.97,South,184,0.0,0.0,0,0.01,,---,0.03,VWS V14.00,2013-04-23 07:32:00,
2013-04-23 02:37:00,49.9,0.0,29.96,South,184,0.0,0.0,0,0.01,,---,0.03,VWS V14.00,2013-04-23 07:37:00,
2013-04-23 02:42:00,49.9,0.0,29.95,South,169,0.0,0.0,0,0.01,,---,0.03,VWS V14.00,2013-04-23 07:42:00,
2013-04-23 02:47:00,49.9,0.0,29.95,SE,145,0.0,0.0,0,0.01,,---,0.03,VWS V14.00,2013-04-23 07:47:00,
2013-04-23 02:52:00,50.1,0.0,29.96,SE,142,0.0,0.0,0,0.01,,---,0.03,VWS V14.00,2013-04-23 07:52:00,
2013-04-23 02:57:00,50.4,0.0,29.97,SE,143,0.0,0.0,0,0.01,,---,0.03,VWS V14.00,2013-04-23 07:57:00,
2013-04-23 03:02:00,50.4,0.0,29.97,SE,143,0.0,0.0,0,0.00,,---,0.03,VWS V14.00,2013-04-23 08:02:00,
2013-04-23 03:08:00,50.4,0.0,29.97,SE,143,0.0,0.0,0,0.00,,---,0.03,VWS V14.00,2013-04-23 08:08:00,
2013-04-23 03:13:00,50.5,0.0,29.97,SE,143,0.0,0.0,0,0.00,,---,0.03,VWS V14.00,2013-04-23 08:13:00,
2013-04-23 03:18:00,50.4,0.0,29.97,SE,143,0.0,0.0,0,0.00,,---,0.03,VWS V14.00,2013-04-23 08:18:00,
2013-04-23 03:23:00,50.4,0.0,29.97,SE,143,0.0,0.0,0,0.00,,---,0.03,VWS V14.00,2013-04-23 08:23:00,
2013-04-23 03:28:00,50.2,0.0,29.97,SE,143,0.0,0.0,0,0.00,,---,0.03,VWS V14.00,2013-04-23 08:28:00,
2013-04-23 03:33:00,50.2,0.0,29.96,SE,143,0.0,0.0,0,0.00,,---,0.03,VWS V14.00,2013-04-23 08:33:00,
2013-04-23 03:38:00,50.1,0.0,29.96,SE,143,0.0,0.0,0,0.00,,---,0.03,VWS V14.00,2013-04-23 08:38:00,
2013-04-23 03:43:00,50.1,0.0,29.96,SE,143,0.0,0.0,0,0.00,,---,0.03,VWS V14.00,2013-04-23 08:43:00,
2013-04-23 03:48:00,50.1,0.0,29.95,SE,143,0.0,0.0,0,0.00,,---,0.03,VWS V14.00,2013-04-23 08:48:00,
2013-04-23 03:53:00,50.1,0.0,29.95,SE,143,0.0,0.0,0,0.00,,---,0.03,VWS V14.00,2013-04-23 08:53:00,
2013-04-23 03:59:00,49.9,0.0,29.95,SE,143,0.0,0.0,0,0.00,,---,0.03,VWS V14.00,2013-04-23 08:59:00,
2013-04-23 04:04:00,49.9,0.0,29.94,SE,143,0.0,0.0,0,0.00,,---,0.03,VWS V14.00,2013-04-23 09:04:00,
2013-04-23 04:09:00,49.9,0.0,29.94,SE,143,0.0,0.0,0,0.00,,---,0.03,VWS V14.00,2013-04-23 09:09:00,
2013-04-23 04:14:00,49.9,0.0,29.94,SE,143,0.0,0.0,0,0.00,,---,0.03,VWS V14.00,2013-04-23 09:14:00,
2013-04-23 04:19:00,49.9,0.0,29.94,SE,143,0.0,0.0,0,0.00,,---,0.03,VWS V14.00,2013-04-23 09:19:00,
2013-04-23 04:24:00,49.9,0.0,29.94,SE,143,0.0,0.0,0,0.00,,---,0.03,VWS V14.00,2013-04-23 09:24:00,
2013-04-23 04:29:00,49.9,0.0,29.94,SE,143,0.0,0.0,0,0.00,,---,0.03,VWS V14.00,2013-04-23 09:29:00,
2013-04-23 04:34:00,49.9,0.0,29.94,SE,143,0.0,0.0,0,0.00,,---,0.03,VWS V14.00,2013-04-23 09:34:00,
2013-04-23 04:39:00,49.9,0.0,29.94,SE,143,0.0,0.0,0,0.00,,---,0.03,VWS V14.00,2013-04-23 09:39:00,
2013-04-23 04:45:00,49.9,0.0,29.94,SE,143,0.0,0.0,0,0.00,,---,0.03,VWS V14.00,2013-04-23 09:45:00,
2013-04-23 04:50:00,49.9,0.0,29.94,SE,143,0.0,0.0,0,0.00,,---,0.03,VWS V14.00,2013-04-23 09:50:00,
2013-04-23 04:55:00,49.9,0.0,29.93,SE,143,0.0,0.0,0,0.00,,---,0.03,VWS V14.00,2013-04-23 09:55:00,
2013-04-23 05:00:00,49.8,0.0,29.94,SE,143,0.0,0.0,0,0.00,,---,0.03,VWS V14.00,2013-04-23 10:00:00,
2013-04-23 05:05:00,49.5,0.0,29.93,SE,143,0.0,0.0,0,0.00,,---,0.03,VWS V14.00,2013-04-23 10:05:00,
2013-04-23 05:10:00,49.5,0.0,29.92,SE,143,0.0,0.0,0,0.00,,---,0.03,VWS V14.00,2013-04-23 10:10:00,
2013-04-23 05:15:00,49.5,0.0,29.92,SE,143,0.0,0.0,0,0.00,,---,0.03,VWS V14.00,2013-04-23 10:15:00,
2013-04-23 05:20:00,49.5,0.0,29.92,SE,143,0.0,0.0,0,0.00,,---,0.03,VWS V14.00,2013-04-23 10:20:00,
2013-04-23 05:25:00,49.4,0.0,29.92,SE,143,0.0,0.0,0,0.00,,---,0.03,VWS V14.00,2013-04-23 10:25:00,
2013-04-23 05:30:00,49.4,0.0,29.93,SE,143,0.0,0.0,0,0.00,,---,0.03,VWS V14.00,2013-04-23 10:30:00,
2013-04-23 05:36:00,49.4,0.0,29.93,SE,143,0.0,0.0,0,0.00,,---,0.03,VWS V14.00,2013-04-23 10:36:00,
2013-04-23 05:41:00,49.4,0.0,29.93,SE,143,0.0,0.0,0,0.00,,---,0.03,VWS V14.00,2013-04-23 10:41:00,
2013-04-23 05:46:00,49.4,0.0,29.94,SE,143,0.0,0.0,0,0.00,,---,0.03,VWS V14.00,2013-04-23 10:46:00,
2013-04-23 05:51:00,49.4,0.0,29.94,SE,143,0.0,0.0,0,0.00,,---,0.03,VWS V14.00,2013-04-23 10:51:00,
2013-04-23 05:56:00,49.4,0.0,29.94,SE,143,0.0,0.0,0,0.00,,---,0.03,VWS V14.00,2013-04-23 10:56:00,
2013-04-23 06:01:00,49.5,0.0,29.94,SE,143,0.0,0.0,0,0.00,,---,0.03,VWS V14.00,2013-04-23 11:01:00,
2013-04-23 06:06:00,49.6,0.0,29.94,SE,143,0.0,0.0,0,0.00,,---,0.03,VWS V14.00,2013-04-23 11:06:00,
2013-04-23 06:11:00,49.6,0.0,29.94,SE,143,0.0,0.0,0,0.00,,---,0.03,VWS V14.00,2013-04-23 11:11:00,
2013-04-23 06:16:00,49.6,0.0,29.94,SE,143,0.0,0.0,0,0.00,,---,0.03,VWS V14.00,2013-04-23 11:16:00,
2013-04-23 06:22:00,49.6,0.0,29.94,SE,143,0.0,0.0,0,0.00,,---,0.03,VWS V14.00,2013-04-23 11:22:00,
2013-04-23 06:27:00,49.6,0.0,29.94,SE,144,0.0,0.0,0,0.00,,---,0.03,VWS V14.00,2013-04-23 11:27:00,
2013-04-23 06:32:00,50.1,0.0,29.94,SSW,211,0.0,0.0,0,0.00,,---,0.03,VWS V14.00,2013-04-23 11:32:00,
2013-04-23 06:37:00,50.1,0.0,29.94,SSW,211,0.0,0.0,0,0.00,,---,0.03,VWS V14.00,2013-04-23 11:37:00,
2013-04-23 06:42:00,50.2,0.0,29.94,SSW,211,0.0,0.0,0,0.00,,---,0.03,VWS V14.00,2013-04-23 11:42:00,
2013-04-23 06:47:00,50.4,0.0,29.94,SSW,211,0.0,0.0,0,0.00,,---,0.03,VWS V14.00,2013-04-23 11:47:00,
2013-04-23 06:52:00,50.4,0.0,29.94,SSW,211,0.0,0.0,0,0.00,,---,0.03,VWS V14.00,2013-04-23 11:52:00,
2013-04-23 06:57:00,50.5,0.0,29.93,SSW,211,0.0,0.0,0,0.00,,---,0.03,VWS V14.00,2013-04-23 11:57:00,
2013-04-23 07:02:00,50.5,0.0,29.93,SSW,211,0.0,0.0,0,0.00,,---,0.03,VWS V14.00,2013-04-23 12:02:00,
2013-04-23 07:07:00,50.5,0.0,29.93,SSW,211,0.0,0.0,0,0.00,,---,0.03,VWS V14.00,2013-04-23 12:07:00,
2013-04-23 07:13:00,50.7,0.0,29.93,SSW,211,0.0,0.0,0,0.00,,---,0.03,VWS V14.00,2013-04-23 12:13:00,
2013-04-23 07:18:00,50.7,0.0,29.93,SSW,211,0.0,0.0,0,0.00,,---,0.03,VWS V14.00,2013-04-23 12:18:00,
2013-04-23 07:23:00,50.7,0.0,29.93,SSW,211,0.0,0.0,0,0.00,,---,0.03,VWS V14.00,2013-04-23 12:23:00,
2013-04-23 07:28:00,50.8,0.0,29.94,SSW,211,0.0,0.0,0,0.00,,---,0.03,VWS V14.00,2013-04-23 12:28:00,
2013-04-23 07:33:00,50.8,0.0,29.93,SSW,211,0.0,0.0,0,0.00,,---,0.03,VWS V14.00,2013-04-23 12:33:00,
2013-04-23 07:38:00,51.0,0.0,29.93,SSW,211,0.0,0.0,0,0.00,,---,0.03,VWS V14.00,2013-04-23 12:38:00,
2013-04-23 07:43:00,51.0,0.0,29.94,SSW,211,0.0,0.0,0,0.00,,---,0.03,VWS V14.00,2013-04-23 12:43:00,
2013-04-23 07:48:00,51.1,0.0,29.93,SSW,211,0.0,0.0,0,0.00,,---,0.03,VWS V14.00,2013-04-23 12:48:00,
2013-04-23 07:53:00,51.1,0.0,29.93,SSW,211,0.0,0.0,0,0.00,,---,0.03,VWS V14.00,2013-04-23 12:53:00,
2013-04-23 07:59:00,51.1,0.0,29.94,SSW,211,0.0,0.0,0,0.00,,---,0.03,VWS V14.00,2013-04-23 12:59:00,
2013-04-23 08:04:00,51.1,0.0,29.94,SW,236,4.0,5.0,0,0.00,,---,0.03,VWS V14.00,2013-04-23 13:04:00,
2013-04-23 08:09:00,51.0,0.0,29.94,WNW,283,4.0,9.0,0,0.00,,---,0.03,VWS V14.00,2013-04-23 13:09:00,
2013-04-23 08:14:00,50.8,0.0,29.95,WNW,291,11.0,13.0,0,0.00,,---,0.03,VWS V14.00,2013-04-23 13:14:00,
2013-04-23 08:19:00,50.7,0.0,29.95,WNW,288,7.0,13.0,0,0.00,,---,0.03,VWS V14.00,2013-04-23 13:19:00,
2013-04-23 08:24:00,50.7,0.0,29.95,WNW,300,6.0,14.0,0,0.00,,---,0.03,VWS V14.00,2013-04-23 13:24:00,
2013-04-23 08:29:00,50.5,0.0,29.95,WNW,295,9.0,14.0,0,0.00,,---,0.03,VWS V14.00,2013-04-23 13:29:00,
2013-04-23 08:34:00,50.4,0.0,29.95,WNW,286,6.0,10.0,0,0.00,,---,0.03,VWS V14.00,2013-04-23 13:34:00,
2013-04-23 08:39:00,50.4,0.0,29.95,WNW,285,5.0,10.0,0,0.00,,---,0.03,VWS V14.00,2013-04-23 13:39:00,
2013-04-23 08:44:00,50.2,0.0,29.95,West,275,13.0,14.0,0,0.00,,---,0.03,VWS V14.00,2013-04-23 13:44:00,
2013-04-23 08:50:00,49.4,0.0,29.94,West,278,6.0,14.0,0,0.00,,---,0.03,VWS V14.00,2013-04-23 13:50:00,
2013-04-23 08:55:00,48.9,0.0,29.94,West,279,6.0,14.0,0,0.00,,---,0.03,VWS V14.00,2013-04-23 13:55:00,
2013-04-23 09:00:00,48.8,0.0,29.94,West,276,9.0,14.0,0,0.00,,---,0.03,VWS V14.00,2013-04-23 14:00:00,
2013-04-23 09:05:00,48.6,0.0,29.94,West,275,4.0,8.0,0,0.00,,---,0.03,VWS V14.00,2013-04-23 14:05:00,
2013-04-23 09:10:00,48.6,0.0,29.94,West,271,3.0,8.0,0,0.00,,---,0.03,VWS V14.00,2013-04-23 14:10:00,
2013-04-23 09:15:00,48.6,0.0,29.94,West,274,9.0,10.0,0,0.00,,---,0.03,VWS V14.00,2013-04-23 14:15:00,
2013-04-23 09:20:00,48.6,0.0,29.94,WNW,292,10.0,12.0,0,0.00,,---,0.03,VWS V14.00,2013-04-23 14:20:00,
2013-04-23 09:25:00,48.3,0.0,29.94,WNW,302,8.0,12.0,0,0.00,,---,0.03,VWS V14.00,2013-04-23 14:25:00,
2013-04-23 09:30:00,48.5,0.0,29.93,NW,309,5.0,12.0,0,0.00,,---,0.03,VWS V14.00,2013-04-23 14:30:00,
2013-04-23 09:36:00,48.5,0.0,29.94,WNW,296,5.0,11.0,0,0.00,,---,0.03,VWS V14.00,2013-04-23 14:36:00,
2013-04-23 09:41:00,48.3,0.0,29.94,WNW,290,6.0,11.0,0,0.00,,---,0.03,VWS V14.00,2013-04-23 14:41:00,
2013-04-23 09:46:00,48.3,0.0,29.94,WNW,286,7.0,11.0,0,0.00,,---,0.03,VWS V14.00,2013-04-23 14:46:00,
2013-04-23 09:51:00,48.3,0.0,29.95,WNW,286,6.0,11.0,0,0.00,,---,0.03,VWS V14.00,2013-04-23 14:51:00,
2013-04-23 09:56:00,48.0,0.0,29.95,WNW,293,10.0,12.0,0,0.00,,---,0.03,VWS V14.00,2013-04-23 14:56:00,
2013-04-23 10:01:00,47.7,0.0,29.95,NW,306,7.0,9.0,0,0.00,,---,0.03,VWS V14.00,2013-04-23 15:01:00,
2013-04-23 10:06:00,46.8,0.0,29.95,WNW,294,11.0,15.0,0,0.00,,---,0.03,VWS V14.00,2013-04-23 15:06:00,
2013-04-23 10:11:00,46.4,0.0,29.95,WNW,296,12.0,15.0,0,0.00,,---,0.03,VWS V14.00,2013-04-23 15:11:00,
2013-04-23 10:16:00,46.0,0.0,29.95,NW,304,10.0,15.0,0,0.00,,---,0.03,VWS V14.00,2013-04-23 15:16:00,
2013-04-23 10:21:00,45.5,0.0,29.95,NW,306,11.0,17.0,0,0.00,,---,0.03,VWS V14.00,2013-04-23 15:21:00,
2013-04-23 10:26:00,45.4,0.0,29.96,WNW,296,5.0,17.0,0,0.01,,---,0.04,VWS V14.00,2013-04-23 15:26:00,
2013-04-23 10:32:00,45.2,0.0,29.96,WNW,297,7.0,9.0,0,0.01,,---,0.04,VWS V14.00,2013-04-23 15:32:00,
2013-04-23 10:37:00,45.1,0.0,29.96,WNW,297,7.0,12.0,0,0.01,,---,0.04,VWS V14.00,2013-04-23 15:37:00,
2013-04-23 10:42:00,44.8,0.0,29.97,WNW,290,7.0,14.0,0,0.01,,---,0.04,VWS V14.00,2013-04-23 15:42:00,
2013-04-23 10:47:00,44.6,0.0,29.97,WNW,298,9.0,14.0,0,0.02,,---,0.05,VWS V14.00,2013-04-23 15:47:00,
2013-04-23 10:52:00,44.5,0.0,29.97,WNW,289,10.0,14.0,0,0.02,,---,0.05,VWS V14.00,2013-04-23 15:52:00,
2013-04-23 10:57:00,43.8,0.0,29.97,NW,308,15.0,17.0,0,0.03,,---,0.06,VWS V14.00,2013-04-23 15:57:00,
2013-04-23 11:02:00,43.5,0.0,29.97,NW,304,13.0,14.0,0,0.04,,---,0.07,VWS V14.00,2013-04-23 16:02:00,
2013-04-23 11:07:00,43.1,0.0,29.97,NW,313,10.0,15.0,0,0.04,,---,0.07,VWS V14.00,2013-04-23 16:07:00,
2013-04-23 11:12:00,43.2,0.0,29.97,NW,325,10.0,15.0,0,0.05,,---,0.08,VWS V14.00,2013-04-23 16:12:00,
2013-04-23 11:17:00,42.6,0.0,29.97,NW,313,12.0,17.0,0,0.05,,---,0.08,VWS V14.00,2013-04-23 16:17:00,
2013-04-23 11:23:00,42.3,0.0,29.97,NW,304,14.0,20.0,0,0.05,,---,0.08,VWS V14.00,2013-04-23 16:23:00,
2013-04-23 11:28:00,41.8,0.0,29.97,NW,309,15.0,20.0,0,0.06,,---,0.09,VWS V14.00,2013-04-23 16:28:00,
2013-04-23 11:33:00,41.3,0.0,29.98,NW,309,10.0,14.0,0,0.06,,---,0.10,VWS V14.00,2013-04-23 16:33:00,
2013-04-23 11:38:00,41.1,0.0,29.97,WNW,302,12.0,17.0,0,0.07,,---,0.11,VWS V14.00,2013-04-23 16:38:00,
2013-04-23 11:43:00,40.8,0.0,29.98,NW,319,10.0,17.0,0,0.07,,---,0.11,VWS V14.00,2013-04-23 16:43:00,
2013-04-23 11:48:00,40.8,0.0,29.98,NW,323,13.0,17.0,0,0.08,,---,0.12,VWS V14.00,2013-04-23 16:48:00,
2013-04-23 11:53:00,40.6,0.0,29.97,NW,323,13.0,17.0,0,0.08,,---,0.12,VWS V14.00,2013-04-23 16:53:00,
2013-04-23 11:58:00,40.6,0.0,29.98,NW,313,10.0,17.0,0,0.09,,---,0.13,VWS V14.00,2013-04-23 16:58:00,
2013-04-23 12:03:00,40.8,0.0,29.98,WNW,302,9.0,13.0,0,0.06,,---,0.13,VWS V14.00,2013-04-23 17:03:00,
2013-04-23 12:09:00,40.6,0.0,29.98,NW,311,10.0,16.0,0,0.07,,---,0.14,VWS V14.00,2013-04-23 17:09:00,
2013-04-23 12:14:00,40.6,0.0,29.98,NW,315,10.0,16.0,0,0.07,,---,0.14,VWS V14.00,2013-04-23 17:14:00,
2013-04-23 12:19:00,40.1,0.0,29.97,NW,317,16.0,19.0,0,0.08,,---,0.15,VWS V14.00,2013-04-23 17:19:00,
2013-04-23 12:24:00,39.9,0.0,29.97,NW,322,15.0,19.0,0,0.09,,---,0.16,VWS V14.00,2013-04-23 17:24:00,
2013-04-23 12:29:00,39.8,0.0,29.97,NW,318,14.0,19.0,0,0.09,,---,0.16,VWS V14.00,2013-04-23 17:29:00,
2013-04-23 12:34:00,39.8,0.0,29.97,NW,324,11.0,15.0,0,0.08,,---,0.17,VWS V14.00,2013-04-23 17:34:00,
2013-04-23 12:39:00,39.6,0.0,29.97,NNW,332,16.0,17.0,0,0.09,,---,0.18,VWS V14.00,2013-04-23 17:39:00,
2013-04-23 12:44:00,39.6,0.0,29.97,NW,306,11.0,17.0,0,0.10,,---,0.19,VWS V14.00,2013-04-23 17:44:00,
2013-04-23 12:50:00,39.5,0.0,29.97,NNW,327,14.0,18.0,0,0.10,,---,0.19,VWS V14.00,2013-04-23 17:50:00,
2013-04-23 12:55:00,39.6,0.0,29.97,NW,315,13.0,18.0,0,0.11,,---,0.20,VWS V14.00,2013-04-23 17:55:00,
2013-04-23 13:00:00,39.6,0.0,29.96,NW,325,12.0,18.0,0,0.11,,---,0.20,VWS V14.00,2013-04-23 18:00:00,
2013-04-23 13:05:00,39.5,0.0,29.96,NW,311,15.0,18.0,0,0.08,,---,0.21,VWS V14.00,2013-04-23 18:05:00,
2013-04-23 13:10:00,39.5,0.0,29.96,NW,319,13.0,18.0,0,0.09,,---,0.22,VWS V14.00,2013-04-23 18:10:00,
2013-04-23 13:15:00,39.6,0.0,29.96,NNW,328,12.0,18.0,0,0.10,,---,0.23,VWS V14.00,2013-04-23 18:15:00,
2013-04-23 13:20:00,39.6,0.0,29.95,NW,315,10.0,18.0,0,0.11,,---,0.24,VWS V14.00,2013-04-23 18:20:00,
2013-04-23 13:25:00,39.5,0.0,29.96,NW,325,10.0,18.0,0,0.12,,---,0.25,VWS V14.00,2013-04-23 18:25:00,
2013-04-23 13:30:00,39.3,0.0,29.96,NW,316,13.0,18.0,0,0.13,,---,0.26,VWS V14.00,2013-04-23 18:30:00,
2013-04-23 13:35:00,39.3,0.0,29.96,NW,315,11.0,18.0,0,0.10,,---,0.27,VWS V14.00,2013-04-23 18:35:00,
2013-04-23 13:41:00,39.2,0.0,29.96,NW,323,13.0,19.0,0,0.10,,---,0.27,VWS V14.00,2013-04-23 18:41:00,
2013-04-23 13:46:00,39.2,0.0,29.96,NW,322,13.0,19.0,0,0.11,,---,0.28,VWS V14.00,2013-04-23 18:46:00,
2013-04-23 13:51:00,39.2,0.0,29.96,NNW,331,15.0,19.0,0,0.12,,---,0.29,VWS V14.00,2013-04-23 18:51:00,
2013-04-23 13:56:00,39.5,0.0,29.96,NNW,327,11.0,19.0,0,0.12,,---,0.29,VWS V14.00,2013-04-23 18:56:00,
2013-04-23 14:01:00,39.5,0.0,29.96,NW,317,8.0,10.0,0,0.09,,---,0.30,VWS V14.00,2013-04-23 19:01:00,
2013-04-23 14:06:00,39.5,0.0,29.96,NW,320,9.0,15.0,0,0.09,,---,0.30,VWS V14.00,2013-04-23 19:06:00,
2013-04-23 14:11:00,39.6,0.0,29.96,NW,323,10.0,15.0,0,0.09,,---,0.30,VWS V14.00,2013-04-23 19:11:00,
2013-04-23 14:16:00,39.6,0.0,29.96,NW,313,12.0,15.0,0,0.09,,---,0.30,VWS V14.00,2013-04-23 19:16:00,
2013-04-23 14:21:00,39.6,0.0,29.96,NW,309,15.0,15.0,0,0.09,,---,0.30,VWS V14.00,2013-04-23 19:21:00,
2013-04-23 14:27:00,39.3,0.0,29.97,NW,313,12.0,16.0,0,0.09,,---,0.30,VWS V14.00,2013-04-23 19:27:00,
2013-04-23 14:32:00,39.3,0.0,29.96,NW,317,9.0,13.0,0,0.05,,---,0.31,VWS V14.00,2013-04-23 19:32:00,
2013-04-23 14:37:00,39.5,0.0,29.96,NW,321,10.0,14.0,0,0.05,,---,0.31,VWS V14.00,2013-04-23 19:37:00,
2013-04-23 14:42:00,39.5,0.0,29.96,NW,325,13.0,16.0,0,0.05,,---,0.31,VWS V14.00,2013-04-23 19:42:00,
2013-04-23 14:47:00,39.3,0.0,29.96,WNW,302,10.0,16.0,0,0.05,,---,0.31,VWS V14.00,2013-04-23 19:47:00,
2013-04-23 14:52:00,39.3,0.0,29.96,NW,310,11.0,16.0,0,0.05,,---,0.31,VWS V14.00,2013-04-23 19:52:00,
2013-04-23 14:57:00,39.2,0.0,29.96,NW,323,14.0,16.0,0,0.05,,---,0.31,VWS V14.00,2013-04-23 19:57:00,
2013-04-23 15:02:00,39.1,0.0,29.96,NW,322,11.0,13.0,0,0.01,,---,0.31,VWS V14.00,2013-04-23 20:02:00,
2013-04-23 15:07:00,39.2,0.0,29.96,NW,315,10.0,14.0,0,0.01,,---,0.31,VWS V14.00,2013-04-23 20:07:00,
2013-04-23 15:12:00,39.1,0.0,29.96,NW,321,10.0,14.0,0,0.02,,---,0.32,VWS V14.00,2013-04-23 20:12:00,
2013-04-23 15:17:00,38.9,0.0,29.96,NW,320,10.0,16.0,0,0.02,,---,0.32,VWS V14.00,2013-04-23 20:17:00,
2013-04-23 15:22:00,39.2,0.0,29.96,NW,319,14.0,16.0,0,0.02,,---,0.32,VWS V14.00,2013-04-23 20:22:00,
2013-04-23 15:27:00,39.1,0.0,29.96,NW,317,13.0,17.0,0,0.02,,---,0.32,VWS V14.00,2013-04-23 20:27:00,
2013-04-23 15:32:00,38.9,0.0,29.97,NNW,329,13.0,16.0,0,0.01,,---,0.32,VWS V14.00,2013-04-23 20:32:00,
2013-04-23 15:38:00,38.8,0.0,29.96,NW,308,15.0,17.0,0,0.01,,---,0.32,VWS V14.00,2013-04-23 20:38:00,
2013-04-23 15:43:00,38.8,0.0,29.96,NNW,334,9.0,17.0,0,0.01,,---,0.32,VWS V14.00,2013-04-23 20:43:00,
2013-04-23 15:48:00,38.5,0.0,29.96,NNW,327,12.0,18.0,0,0.02,,---,0.33,VWS V14.00,2013-04-23 20:48:00,
2013-04-23 15:53:00,38.2,0.0,29.96,NW,323,13.0,21.0,0,0.02,,---,0.33,VWS V14.00,2013-04-23 20:53:00,
2013-04-23 15:58:00,37.9,0.0,29.95,NW,315,16.0,21.0,0,0.02,,---,0.33,VWS V14.00,2013-04-23 20:58:00,
2013-04-23 16:03:00,37.9,0.0,29.96,NW,321,7.0,17.0,0,0.02,,---,0.33,VWS V14.00,2013-04-23 21:03:00,
2013-04-23 16:08:00,37.9,0.0,29.95,NNW,329,11.0,17.0,0,0.02,,---,0.33,VWS V14.00,2013-04-23 21:08:00,
2013-04-23 16:13:00,37.8,0.0,29.95,NNW,344,10.0,17.0,0,0.02,,---,0.33,VWS V14.00,2013-04-23 21:13:00,
2013-04-23 16:19:00,37.6,0.0,29.94,NNW,347,11.0,17.0,0,0.03,,---,0.34,VWS V14.00,2013-04-23 21:19:00,
2013-04-23 16:24:00,37.8,0.0,29.94,NNW,333,11.0,17.0,0,0.03,,---,0.34,VWS V14.00,2013-04-23 21:24:00,
2013-04-23 16:29:00,38.0,0.0,29.94,NNW,344,11.0,17.0,0,0.03,,---,0.34,VWS V14.00,2013-04-23 21:29:00,
2013-04-23 16:34:00,37.8,0.0,29.94,NNW,338,12.0,17.0,0,0.02,,---,0.34,VWS V14.00,2013-04-23 21:34:00,
2013-04-23 16:39:00,37.9,0.0,29.94,NNW,333,12.0,17.0,0,0.02,,---,0.34,VWS V14.00,2013-04-23 21:39:00,
2013-04-23 16:44:00,38.0,0.0,29.95,NW,314,11.0,17.0,0,0.02,,---,0.34,VWS V14.00,2013-04-23 21:44:00,
2013-04-23 16:49:00,37.9,0.0,29.95,NNW,340,10.0,17.0,0,0.02,,---,0.34,VWS V14.00,2013-04-23 21:49:00,
2013-04-23 16:54:00,37.9,0.0,29.94,NW,314,15.0,17.0,0,0.02,,---,0.34,VWS V14.00,2013-04-23 21:54:00,
2013-04-23 16:59:00,38.0,0.0,29.95,NW,323,9.0,17.0,0,0.02,,---,0.34,VWS V14.00,2013-04-23 21:59:00,
2013-04-23 17:05:00,38.3,0.0,29.95,NNW,346,6.0,13.0,0,0.01,,---,0.34,VWS V14.00,2013-04-23 22:05:00,
2013-04-23 17:10:00,38.3,0.0,29.95,NNW,341,10.0,16.0,0,0.01,,---,0.34,VWS V14.00,2013-04-23 22:10:00,
2013-04-23 17:15:00,38.2,0.0,29.95,North,355,15.0,25.0,0,0.01,,---,0.34,VWS V14.00,2013-04-23 22:15:00,
2013-04-23 17:20:00,38.3,0.0,29.95,NNW,332,14.0,25.0,0,0.01,,---,0.34,VWS V14.00,2013-04-23 22:20:00,
2013-04-23 17:25:00,38.3,0.0,29.95,NW,322,14.0,25.0,0,0.01,,---,0.34,VWS V14.00,2013-04-23 22:25:00,
2013-04-23 17:30:00,38.5,0.0,29.95,NNW,346,14.0,25.0,0,0.02,,---,0.35,VWS V14.00,2013-04-23 22:30:00,
2013-04-23 17:35:00,38.3,0.0,29.95,NW,319,16.0,19.0,0,0.01,,---,0.35,VWS V14.00,2013-04-23 22:35:00,
2013-04-23 17:40:00,38.6,0.0,29.95,NNW,338,5.0,19.0,0,0.01,,---,0.35,VWS V14.00,2013-04-23 22:40:00,
2013-04-23 17:45:00,38.6,0.0,29.95,North,355,5.0,19.0,0,0.01,,---,0.35,VWS V14.00,2013-04-23 22:45:00,
2013-04-23 17:51:00,38.5,0.0,29.95,North,355,9.0,19.0,0,0.01,,---,0.35,VWS V14.00,2013-04-23 22:51:00,
2013-04-23 17:56:00,38.5,0.0,29.96,NNW,333,11.0,19.0,0,0.01,,---,0.35,VWS V14.00,2013-04-23 22:56:00,
2013-04-23 18:01:00,38.6,0.0,29.96,NNW,334,13.0,19.0,0,0.01,,---,0.35,VWS V14.00,2013-04-23 23:01:00,
2013-04-23 18:06:00,38.6,0.0,29.96,North,5,9.0,14.0,0,0.01,,---,0.35,VWS V14.00,2013-04-23 23:06:00,
2013-04-23 18:11:00,38.6,0.0,29.96,NNW,345,6.0,14.0,0,0.01,,---,0.35,VWS V14.00,2013-04-23 23:11:00,
2013-04-23 18:16:00,38.8,0.0,29.96,NNE,26,4.0,14.0,0,0.02,,---,0.36,VWS V14.00,2013-04-23 23:16:00,
2013-04-23 18:21:00,38.8,0.0,29.96,NNW,334,6.0,14.0,0,0.02,,---,0.36,VWS V14.00,2013-04-23 23:21:00,
2013-04-23 18:26:00,38.8,0.0,29.96,North,11,5.0,14.0,0,0.02,,---,0.36,VWS V14.00,2013-04-23 23:26:00,
2013-04-23 18:31:00,38.6,0.0,29.96,NNW,340,10.0,10.0,0,0.01,,---,0.36,VWS V14.00,2013-04-23 23:31:00,
2013-04-23 18:36:00,38.8,0.0,29.96,NNW,333,4.0,10.0,0,0.01,,---,0.36,VWS V14.00,2013-04-23 23:36:00,
2013-04-23 18:42:00,38.9,0.0,29.96,NNW,337,4.0,10.0,0,0.01,,---,0.36,VWS V14.00,2013-04-23 23:42:00,
2013-04-23 18:47:00,38.9,0.0,29.96,NNW,341,5.0,10.0,0,0.01,,---,0.36,VWS V14.00,2013-04-23 23:47:00,
2013-04-23 18:52:00,38.9,0.0,29.97,NNW,342,0.0,10.0,0,0.01,,---,0.36,VWS V14.00,2013-04-23 23:52:00,
2013-04-23 18:57:00,38.9,0.0,29.96,NNW,342,0.0,10.0,0,0.01,,---,0.36,VWS V14.00,2013-04-23 23:57:00,
2013-04-23 19:02:00,38.9,0.0,29.97,NNW,342,0.0,0.0,0,0.01,,---,0.36,VWS V14.00,2013-04-24 00:02:00,
2013-04-23 19:07:00,38.9,0.0,29.96,NNW,343,0.0,0.0,0,0.01,,---,0.36,VWS V14.00,2013-04-24 00:07:00,
2013-04-23 19:12:00,38.9,0.0,29.96,NNW,343,0.0,0.0,0,0.01,,---,0.36,VWS V14.00,2013-04-24 00:12:00,
2013-04-23 19:17:00,39.1,0.0,29.96,NNW,343,0.0,0.0,0,0.01,,---,0.36,VWS V14.00,2013-04-24 00:17:00,
2013-04-23 19:23:00,39.1,0.0,29.96,NNW,343,0.0,0.0,0,0.01,,---,0.36,VWS V14.00,2013-04-24 00:23:00,
2013-04-23 19:28:00,39.2,0.0,29.97,NNW,343,0.0,0.0,0,0.01,,---,0.36,VWS V14.00,2013-04-24 00:28:00,
2013-04-23 19:33:00,39.2,0.0,29.96,NNW,344,0.0,0.0,0,0.00,,---,0.36,VWS V14.00,2013-04-24 00:33:00,
2013-04-23 19:38:00,39.3,0.0,29.97,NNW,343,0.0,0.0,0,0.00,,---,0.36,VWS V14.00,2013-04-24 00:38:00,
2013-04-23 19:43:00,39.3,0.0,29.97,NNW,331,0.0,0.0,0,0.00,,---,0.36,VWS V14.00,2013-04-24 00:43:00,
2013-04-23 19:48:00,39.3,0.0,29.96,North,355,5.0,10.0,0,0.00,,---,0.36,VWS V14.00,2013-04-24 00:48:00,
2013-04-23 19:53:00,39.3,0.0,29.96,North,9,3.0,10.0,0,0.00,,---,0.36,VWS V14.00,2013-04-24 00:53:00,
2013-04-23 19:58:00,39.5,0.0,29.97,NNW,342,5.0,11.0,0,0.00,,---,0.36,VWS V14.00,2013-04-24 00:58:00,
2013-04-23 20:03:00,39.6,0.0,29.97,North,351,5.0,7.0,0,0.00,,---,0.36,VWS V14.00,2013-04-24 01:03:00,
2013-04-23 20:09:00,39.6,0.0,29.97,NNW,343,6.0,9.0,0,0.00,,---,0.36,VWS V14.00,2013-04-24 01:09:00,
2013-04-23 20:14:00,39.8,0.0,29.97,NNW,340,6.0,9.0,0,0.00,,---,0.36,VWS V14.00,2013-04-24 01:14:00,
2013-04-23 20:19:00,39.8,0.0,29.97,NNW,337,7.0,13.0,0,0.00,,---,0.36,VWS V14.00,2013-04-24 01:19:00,
2013-04-23 20:24:00,39.8,0.0,29.97,NNW,327,8.0,13.0,0,0.00,,---,0.36,VWS V14.00,2013-04-24 01:24:00,
2013-04-23 20:29:00,39.9,0.0,29.97,NNW,342,7.0,13.0,0,0.00,,---,0.36,VWS V14.00,2013-04-24 01:29:00,
2013-04-23 20:34:00,39.9,0.0,29.97,NNW,333,14.0,15.0,0,0.00,,---,0.36,VWS V14.00,2013-04-24 01:34:00,
2013-04-23 20:39:00,40.1,0.0,29.97,NNW,341,9.0,16.0,0,0.00,,---,0.36,VWS V14.00,2013-04-24 01:39:00,
2013-04-23 20:44:00,40.1,0.0,29.97,NNW,330,10.0,16.0,0,0.00,,---,0.36,VWS V14.00,2013-04-24 01:44:00,
2013-04-23 20:49:00,39.9,0.0,29.97,NNW,339,12.0,16.0,0,0.00,,---,0.36,VWS V14.00,2013-04-24 01:49:00,
2013-04-23 20:54:00,39.9,0.0,29.96,NNW,338,10.0,16.0,0,0.00,,---,0.36,VWS V14.00,2013-04-24 01:54:00,
2013-04-23 20:59:00,39.9,0.0,29.96,NNW,337,9.0,16.0,0,0.00,,---,0.36,VWS V14.00,2013-04-24 01:59:00,
2013-04-23 21:05:00,39.9,0.0,29.96,NNW,328,10.0,16.0,0,0.00,,---,0.36,VWS V14.00,2013-04-24 02:05:00,
2013-04-23 21:10:00,39.9,0.0,29.96,NNW,328,10.0,19.0,0,0.00,,---,0.36,VWS V14.00,2013-04-24 02:10:00,
2013-04-23 21:15:00,39.9,0.0,29.97,NNW,334,9.0,19.0,0,0.00,,---,0.36,VWS V14.00,2013-04-24 02:15:00,
2013-04-23 21:20:00,39.9,0.0,29.96,NNW,333,10.0,19.0,0,0.00,,---,0.36,VWS V14.00,2013-04-24 02:20:00,
2013-04-23 21:25:00,39.9,0.0,29.97,NNW,329,11.0,19.0,0,0.00,,---,0.36,VWS V14.00,2013-04-24 02:25:00,
2013-04-23 21:30:00,39.9,0.0,29.97,NNW,327,15.0,19.0,0,0.00,,---,0.36,VWS V14.00,2013-04-24 02:30:00,
2013-04-23 21:35:00,39.9,0.0,29.97,NNW,346,8.0,13.0,0,0.00,,---,0.36,VWS V14.00,2013-04-24 02:35:00,
2013-04-23 21:40:00,39.9,0.0,29.96,NW,325,9.0,17.0,0,0.00,,---,0.36,VWS V14.00,2013-04-24 02:40:00,
2013-04-23 21:45:00,39.8,0.0,29.97,NNW,327,14.0,17.0,0,0.00,,---,0.36,VWS V14.00,2013-04-24 02:45:00,
2013-04-23 21:51:00,39.9,0.0,29.97,NNW,337,12.0,17.0,0,0.00,,---,0.36,VWS V14.00,2013-04-24 02:51:00,
2013-04-23 21:56:00,39.9,0.0,29.97,NNW,336,7.0,17.0,0,0.00,,---,0.36,VWS V14.00,2013-04-24 02:56:00,
2013-04-23 22:01:00,39.8,0.0,29.97,NNW,336,9.0,17.0,0,0.00,,---,0.36,VWS V14.00,2013-04-24 03:01:00,
2013-04-23 22:06:00,39.8,0.0,29.97,NNW,327,11.0,16.0,0,0.00,,---,0.36,VWS V14.00,2013-04-24 03:06:00,
2013-04-23 22:11:00,39.8,0.0,29.97,NNW,327,16.0,16.0,0,0.00,,---,0.36,VWS V14.00,2013-04-24 03:11:00,
2013-04-23 22:16:00,39.8,0.0,29.97,NW,318,10.0,16.0,0,0.00,,---,0.36,VWS V14.00,2013-04-24 03:16:00,
2013-04-23 22:21:00,39.6,0.0,29.97,NW,326,10.0,16.0,0,0.00,,---,0.36,VWS V14.00,2013-04-24 03:21:00,
2013-04-23 22:26:00,39.6,0.0,29.97,NNW,327,11.0,20.0,0,0.00,,---,0.36,VWS V14.00,2013-04-24 03:26:00,
2013-04-23 22:31:00,39.6,0.0,29.97,NW,317,17.0,17.0,0,0.00,,---,0.36,VWS V14.00,2013-04-24 03:31:00,
2013-04-23 22:36:00,39.6,0.0,29.96,NNW,337,9.0,17.0,0,0.00,,---,0.36,VWS V14.00,2013-04-24 03:36:00,
2013-04-23 22:42:00,39.6,0.0,29.96,NNW,331,12.0,17.0,0,0.00,,---,0.36,VWS V14.00,2013-04-24 03:42:00,
2013-04-23 22:47:00,39.5,0.0,29.97,NNW,331,14.0,17.0,0,0.00,,---,0.36,VWS V14.00,2013-04-24 03:47:00,
2013-04-23 22:52:00,39.5,0.0,29.96,NNW,337,10.0,17.0,0,0.00,,---,0.36,VWS V14.00,2013-04-24 03:52:00,
2013-04-23 22:57:00,39.3,0.0,29.96,NNW,332,11.0,17.0,0,0.00,,---,0.36,VWS V14.00,2013-04-24 03:57:00,
2013-04-23 23:01:00,39.3,0.0,29.97,NNW,333,17.0,17.0,0,0.00,,---,0.36,VWS V14.00,2013-04-24 04:01:00,
2013-04-23 23:06:00,39.3,0.0,29.96,NW,324,16.0,19.0,0,0.00,,---,0.36,VWS V14.00,2013-04-24 04:06:00,
2013-04-23 23:11:00,39.3,0.0,29.97,NNW,335,12.0,20.0,0,0.00,,---,0.36,VWS V14.00,2013-04-24 04:11:00,
2013-04-23 23:17:00,39.3,0.0,29.98,NNW,329,12.0,20.0,0,0.00,,---,0.36,VWS V14.00,2013-04-24 04:17:00,
2013-04-23 23:22:00,39.2,0.0,29.97,NW,315,13.0,20.0,0,0.00,,---,0.36,VWS V14.00,2013-04-24 04:22:00,
2013-04-23 23:27:00,39.2,0.0,29.97,North,355,11.0,20.0,0,0.00,,---,0.36,VWS V14.00,2013-04-24 04:27:00,
2013-04-23 23:32:00,39.2,0.0,29.97,North,350,12.0,15.0,0,0.00,,---,0.36,VWS V14.00,2013-04-24 04:32:00,
2013-04-23 23:37:00,39.1,0.0,29.97,NNW,341,9.0,17.0,0,0.00,,---,0.36,VWS V14.00,2013-04-24 04:37:00,
2013-04-23 23:42:00,39.1,0.0,29.96,NNW,331,14.0,17.0,0,0.00,,---,0.36,VWS V14.00,2013-04-24 04:42:00,
2013-04-23 23:47:00,39.1,0.0,29.98,NNW,336,12.0,20.0,0,0.00,,---,0.36,VWS V14.00,2013-04-24 04:47:00,
2013-04-23 23:52:00,39.1,0.0,29.98,NNW,328,11.0,22.0,0,0.00,,---,0.36,VWS V14.00,2013-04-24 04:52:00,
2013-04-23 23:57:00,38.9,0.0,29.98,NNW,333,12.0,22.0,0,0.00,,---,0.36,VWS V14.00,2013-04-24 04:57:00,